Theta_e
300 307 318 316 319 303 305 307 301 302 309 309 302 304 307 306 302 299 309 308 312 322 325 325 327 325 325 327 329 329 328 328 328 328 329 330 331 329 325 326 329 331 334 336 337 338 338 340 340 341 343 345 346 347 348 348 348 351 352 354 354 354 353
303 304 313 317 317 308 304 301 303 307 311 310 303 294 296 296 292 298 306 305 307 306 302 324 322 319 322 325 326 327 328 328 328 329 329 330 330 331 328 326 328 330 333 336 337 339 339 339 340 341 343 345 346 348 348 348 348 349 352 353 354 354 353
303 305 307 310 317 307 310 308 307 304 297 298 302 301 292 293 292 295 301 307 306 307 307 317 319 317 317 322 325 325 325 327 328 329 330 330 331 331 330 327 327 328 331 335 336 338 339 340 341 343 344 346 347 348 349 349 349 350 352 353 354 355 355
301 299 298 294 294 301 300 304 304 306 302 298 299 299 300 298 293 294 296 303 298 309 310 317 319 320 318 320 323 324 326 326 328 330 330 330 330 330 331 328 328 328 329 333 336 337 338 339 340 343 345 346 346 348 349 349 351 351 352 352 353 353 355
299 295 297 296 295 294 292 298 296 301 301 305 305 306 299 294 293 293 294 294 300 306 317 319 321 322 321 321 323 325 326 327 329 330 330 330 330 330 332 330 329 329 328 331 335 336 338 339 342 344 345 346 347 348 348 350 350 350 350 352 352 352 355
293 295 299 301 300 297 296 293 296 296 301 298 295 292 301 302 295 291 294 294 301 310 324 321 323 325 323 324 325 325 327 330 330 331 333 332 331 332 333 333 331 330 329 330 333 335 337 338 341 343 346 346 347 347 348 349 351 350 350 351 351 351 354
296 298 301 302 304 301 300 302 301 301 299 298 292 289 294 302 304 305 301 297 299 315 326 322 322 325 326 327 328 327 328 329 331 333 334 334 334 334 335 336 335 336 337 338 334 333 335 336 340 343 345 346 347 348 348 349 350 350 351 351 352 351 352
298 301 304 303 306 305 302 301 301 306 304 304 296 294 297 300 302 298 298 296 300 315 325 325 325 325 327 328 328 328 328 329 330 332 333 335 335 334 335 335 337 337 339 339 338 337 337 336 339 342 345 346 347 348 348 349 350 350 351 351 352 351 351
292 296 300 300 304 303 298 298 300 308 311 310 303 301 301 299 301 299 296 292 298 314 326 325 327 327 327 327 330 329 328 328 329 331 334 335 335 334 334 335 336 337 337 338 337 337 337 338 339 340 344 346 346 348 349 348 350 351 352 352 352 351 351
284 285 286 289 294 297 299 302 308 312 312 310 301 296 297 292 299 301 296 296 305 319 323 323 324 324 325 329 330 332 330 330 330 332 333 334 334 333 333 334 335 335 336 337 338 338 339 340 339 338 340 343 346 348 349 350 349 350 351 352 352 351 350
288 291 296 301 303 298 301 307 309 310 313 313 298 294 295 292 294 299 299 301 309 313 318 320 321 322 323 325 328 329 330 331 331 331 333 334 334 334 333 334 335 336 336 336 338 339 340 339 340 340 340 339 339 341 342 344 345 347 347 349 350 350 350
296 297 299 303 309 305 305 307 308 310 311 311 308 297 293 301 297 293 301 308 308 311 317 319 320 322 324 326 328 329 330 329 330 332 333 336 334 334 334 334 333 334 335 336 337 339 340 339 340 342 342 343 343 345 345 346 347 347 346 346 345 346 347
302 302 304 307 308 308 308 308 308 308 310 310 308 306 308 307 295 295 303 311 311 314 317 320 321 322 324 326 328 330 332 333 333 332 332 331 332 333 334 333 333 334 335 336 337 339 339 339 340 341 343 344 345 346 346 346 347 347 346 346 345 343 342
302 303 305 307 307 306 306 305 306 308 309 309 310 311 313 309 307 311 314 315 315 319 320 322 323 326 326 328 331 331 331 332 333 333 332 332 333 334 334 333 333 333 335 336 337 339 339 338 339 340 341 343 344 344 344 346 346 347 346 345 343 341 342
299 302 304 306 306 304 302 304 305 307 309 309 310 312 313 316 315 317 316 316 315 321 324 323 326 328 329 330 329 329 330 332 332 332 333 333 334 335 335 335 335 335 336 337 338 338 338 338 339 339 341 342 343 343 343 343 344 345 346 344 343 342 342
294 299 301 302 304 304 302 301 303 305 307 306 308 308 313 313 311 315 316 313 314 321 325 325 326 326 326 326 327 328 329 331 331 331 331 331 333 334 335 336 337 336 337 337 337 337 336 337 338 339 339 341 342 342 343 342 344 345 345 344 343 343 343
290 296 301 302 302 299 295 296 301 306 307 309 311 313 314 313 315 313 310 311 319 323 325 322 323 324 324 323 324 325 327 329 330 330 331 332 333 334 335 336 337 337 336 335 335 336 337 337 338 339 339 339 340 341 341 343 344 343 343 343 342 341 341
288 294 297 299 293 287 288 303 311 311 308 308 308 309 311 313 315 312 315 316 319 322 322 321 320 320 321 322 324 327 327 328 330 332 333 333 332 331 331 332 332 333 332 332 333 334 334 336 339 340 341 340 341 342 342 342 341 340 341 341 342 342 343
290 292 293 291 285 287 301 309 313 314 313 313 311 312 314 315 315 314 312 314 316 317 319 319 321 323 325 327 327 329 331 331 329 329 329 329 329 328 328 328 329 329 329 329 330 331 332 335 336 337 338 340 340 340 341 340 340 339 339 340 340 341 340
289 289 286 283 283 294 303 309 310 311 313 312 309 308 312 314 315 315 312 314 316 318 319 320 323 324 326 327 328 328 330 331 329 328 328 329 329 327 327 327 328 328 329 328 328 329 331 331 333 335 335 337 336 335 337 337 337 338 338 337 337 338 338
288 287 284 289 295 298 300 302 304 305 302 303 302 297 303 313 316 316 314 315 318 319 319 321 323 323 324 322 322 328 328 328 329 329 328 329 328 328 329 329 328 328 328 328 328 329 328 329 329 330 332 332 331 331 330 330 331 331 331 330 331 333 334
290 285 286 286 287 286 292 299 306 311 311 311 309 302 299 307 315 318 317 316 317 318 319 320 320 320 318 314 317 325 327 328 327 328 329 329 329 328 327 327 327 327 327 328 329 327 326 326 327 328 330 330 329 328 327 328 327 327 327 327 329 330 330
289 287 282 282 284 287 296 300 305 309 311 311 307 299 294 303 312 317 319 318 319 319 318 316 316 313 310 311 317 324 327 327 328 325 326 328 328 327 327 326 325 326 326 327 327 327 326 325 325 327 328 327 326 325 325 324 325 325 325 326 327 327 328
290 285 285 285 288 292 300 302 305 308 311 312 302 290 290 303 315 317 317 317 317 316 314 315 314 313 310 312 318 327 328 329 328 326 325 325 325 326 327 327 326 326 327 325 324 324 324 324 325 325 326 326 326 324 324 324 323 322 323 323 325 326 327
293 294 286 287 290 298 303 304 307 309 313 305 293 288 296 309 315 317 316 316 316 316 315 314 310 313 317 320 324 328 327 326 325 326 328 327 327 325 325 325 327 323 324 324 323 322 322 323 323 324 324 324 323 324 322 321 321 321 322 323 324 324 325
288 287 288 287 287 294 302 306 309 310 305 293 290 299 306 314 315 317 318 317 316 316 316 314 314 319 324 326 326 325 324 324 324 326 326 325 325 327 326 326 323 321 320 319 319 320 320 321 322 321 321 321 320 319 319 319 320 321 322 322 323 323 323
290 286 285 285 284 297 308 308 306 309 299 297 301 310 314 316 316 317 318 317 316 317 315 318 320 322 323 324 324 324 323 323 323 322 321 319 321 321 320 320 322 319 317 317 317 318 319 320 321 321 321 320 320 319 317 319 321 321 321 322 324 325 324
285 286 286 285 291 297 305 305 299 303 305 307 312 315 312 315 315 316 315 316 318 319 318 319 320 322 322 321 322 322 321 322 322 322 321 319 317 317 318 319 320 322 319 320 320 320 321 321 320 319 320 320 321 318 316 319 323 324 321 321 324 325 327
292 289 289 295 300 304 306 307 305 308 313 316 316 317 315 316 315 317 316 317 319 319 319 319 320 319 321 322 322 320 320 321 320 320 319 316 315 316 317 318 321 321 319 318 318 319 319 320 320 320 320 320 320 318 318 323 322 322 323 326 324 320 319
302 301 303 305 305 306 309 311 313 315 316 317 319 319 316 317 317 318 318 319 319 319 320 319 318 320 320 321 320 319 320 320 320 320 316 315 315 315 316 317 319 319 318 318 318 318 318 319 320 320 319 319 319 317 321 324 319 321 323 323 323 321 321
292 293 303 304 305 307 309 310 311 313 314 314 317 317 317 318 319 319 320 320 319 319 319 318 318 318 320 320 319 319 319 318 318 317 315 315 315 314 315 317 319 317 317 317 317 317 316 316 317 318 317 318 319 321 321 320 321 322 325 325 324 318 315
293 295 304 306 308 310 312 311 311 311 312 313 314 315 317 318 320 321 321 321 320 320 319 319 318 318 320 320 318 318 318 317 317 316 315 314 314 315 315 316 316 315 315 315 316 316 315 315 317 318 317 317 317 317 318 319 319 323 326 322 317 314 315
300 304 305 307 310 310 311 313 313 313 312 312 312 314 316 318 319 319 319 321 320 320 319 319 319 319 320 320 319 318 318 317 316 315 315 314 315 315 314 314 316 314 314 315 314 316 314 313 314 316 316 316 316 316 317 317 319 323 324 325 321 313 315
295 297 300 306 303 301 306 310 313 314 314 314 314 315 315 317 316 317 317 317 319 320 320 320 320 318 318 319 319 319 319 318 316 315 315 315 315 314 315 316 315 316 316 315 314 314 312 312 314 315 314 315 316 318 317 317 320 323 322 318 313 313 314
297 300 304 306 306 306 307 309 312 313 316 314 314 313 313 314 315 317 317 316 317 318 319 321 320 319 318 318 318 317 316 316 316 316 316 315 314 315 316 315 314 314 314 315 314 314 313 315 316 316 314 314 314 316 315 316 318 317 317 317 315 313 317
303 305 307 307 307 306 308 310 311 312 312 312 311 312 313 313 313 315 315 316 316 315 317 318 320 320 319 319 319 317 317 317 316 315 315 316 316 316 316 315 315 316 315 314 314 315 312 314 314 314 315 314 313 316 315 314 315 315 316 317 312 313 313
304 307 308 307 308 309 310 311 311 312 314 314 312 311 312 313 313 314 313 313 314 316 315 316 317 319 320 319 320 321 320 320 321 319 321 320 318 316 316 316 316 316 316 315 314 313 313 312 311 314 312 315 315 317 314 313 313 313 313 315 313 311 313
Wind_Speed
1 6 7 3 13 7 5 0 2 4 2 7 5 2 2 4 2 2 2 3 2 2 1 4 3 4 8 10 12 12 12 10 9 9 9 10 9 10 11 13 13 14 12 13 13 14 13 12 12 12 12 12 13 12 12 12 11 10 10 10 9 7 6
5 0 5 6 6 5 5 3 7 2 4 3 5 4 1 2 2 1 2 4 1 2 3 2 8 6 7 9 11 12 12 11 12 11 10 10 10 9 11 12 13 14 14 14 12 13 14 14 14 13 13 12 12 12 13 13 12 12 11 10 9 8 8
5 4 6 1 6 3 7 8 5 4 1 2 2 4 1 1 2 2 2 3 3 5 4 4 8 12 10 10 10 11 13 13 13 11 11 10 10 8 8 10 11 11 12 12 13 14 13 14 14 14 14 13 12 12 13 13 14 14 13 10 9 8 8
6 5 4 3 6 6 3 2 3 1 5 3 3 4 3 4 1 1 2 0 4 6 6 12 11 13 11 11 10 12 12 12 12 11 11 10 9 9 8 9 10 12 13 14 14 14 14 13 12 12 13 12 13 13 12 12 11 11 11 10 9 9 9
3 2 2 2 2 2 2 1 1 1 0 2 4 0 2 4 5 3 2 1 5 6 4 10 10 11 11 11 12 11 13 13 9 6 6 6 7 8 8 9 10 12 13 13 13 13 13 13 12 11 12 13 13 11 12 12 12 11 11 10 10 9 8
3 5 3 4 1 2 1 2 2 3 0 3 2 3 1 2 5 3 3 3 5 5 1 7 8 7 6 7 9 8 9 10 10 9 7 8 7 6 7 8 7 8 10 12 11 10 10 11 11 12 12 12 11 12 11 11 11 10 11 10 9 8 7
7 5 7 5 4 3 3 4 4 2 2 3 2 3 4 2 0 3 1 2 2 2 5 2 6 6 5 7 9 10 11 10 7 6 7 6 10 10 8 9 9 9 10 9 3 5 10 12 12 13 12 12 12 12 11 10 11 11 10 10 9 8 7
6 4 3 1 8 2 5 4 3 5 4 2 4 3 4 5 2 1 1 0 1 3 6 3 1 3 7 5 7 11 8 10 12 10 7 6 4 7 9 8 8 9 9 8 7 7 7 3 5 11 12 11 11 11 11 11 12 11 10 9 8 8 7
8 9 10 6 9 6 3 4 5 3 4 2 3 1 1 1 5 4 7 4 1 3 5 5 6 6 7 5 4 4 11 7 11 10 8 5 6 9 11 10 10 10 11 11 8 5 4 7 9 9 5 10 11 11 10 11 11 10 10 9 9 8 8
5 5 4 5 8 8 7 2 7 6 7 7 2 1 0 1 2 2 1 2 1 2 4 7 6 7 5 4 3 3 2 10 11 9 8 8 8 8 10 12 13 15 13 10 8 9 8 6 9 11 13 10 5 7 9 6 4 4 5 8 9 9 9
5 3 4 5 3 3 3 10 7 11 7 5 2 3 4 4 1 4 4 3 4 2 3 5 6 4 4 3 4 3 3 2 2 3 5 6 7 9 11 11 10 9 13 16 14 11 11 10 12 13 14 13 14 11 8 7 8 7 4 0 4 7 8
5 6 5 5 4 4 4 7 11 10 12 9 6 2 2 0 3 4 1 4 5 2 2 4 5 5 4 3 4 4 2 2 3 3 3 5 5 4 4 3 4 7 8 11 14 13 11 10 10 11 14 16 13 6 5 4 3 5 6 6 1 1 4
1 5 3 2 3 3 1 5 10 12 10 10 7 2 4 4 5 7 1 4 7 2 3 4 5 3 6 4 4 4 3 3 3 3 3 3 3 3 4 4 3 4 5 5 6 7 8 11 11 11 12 12 13 13 11 9 7 5 6 9 7 5 4
2 2 1 3 4 2 3 8 6 9 8 7 5 4 7 4 2 4 6 10 10 4 4 5 4 4 4 4 5 4 5 5 4 3 2 2 2 3 3 3 3 3 2 3 5 6 9 11 11 11 11 11 10 11 11 11 9 7 7 6 6 7 7
0 2 2 0 3 3 3 5 9 10 7 3 7 5 8 7 9 8 9 11 9 5 6 6 6 5 6 6 7 6 4 5 5 5 4 3 2 2 3 4 4 3 3 3 4 5 6 7 9 9 9 11 12 10 7 8 9 7 6 7 6 6 6
1 1 2 3 1 2 3 6 9 11 8 7 8 5 5 4 5 5 5 6 5 5 6 6 7 7 7 7 6 5 4 4 4 5 5 5 5 4 4 4 4 5 5 5 5 6 7 6 4 6 8 9 11 11 10 8 8 7 7 7 6 5 5
1 3 3 2 0 2 4 2 2 3 1 1 2 5 8 6 3 3 3 3 2 5 5 6 7 8 8 8 7 6 7 6 5 5 6 6 5 5 5 6 6 7 7 6 7 5 5 5 6 4 6 7 7 8 8 7 6 7 6 5 6 6 7
2 5 5 1 3 2 3 1 1 0 2 1 3 4 5 6 5 4 5 5 7 8 9 8 8 8 6 5 5 5 4 4 6 6 6 7 8 8 9 9 9 9 9 8 8 7 6 6 5 4 4 6 6 6 7 6 4 2 4 5 4 4 4
2 3 3 2 1 7 3 3 1 4 8 9 9 6 7 4 3 4 5 6 9 8 9 9 8 9 8 8 9 9 7 7 7 8 8 8 8 8 8 8 8 8 8 7 8 8 8 7 8 9 7 7 8 8 8 8 7 4 1 3 4 3 3
1 2 2 1 4 3 4 3 2 3 3 3 5 3 6 7 4 3 4 4 4 3 10 6 5 6 6 9 9 9 7 6 7 8 8 7 7 8 6 8 9 9 9 8 7 7 5 7 7 7 7 6 8 7 6 6 5 5 5 5 4 3 4
2 1 2 4 4 5 2 1 1 0 1 0 2 1 2 3 3 2 4 3 5 3 8 9 5 4 6 9 8 9 8 7 7 8 8 8 9 9 8 9 10 9 9 8 7 8 7 7 7 7 6 8 9 8 8 6 7 6 6 6 5 5 5
3 4 2 1 1 2 6 5 5 2 2 1 3 5 1 1 2 1 3 7 4 4 6 5 2 2 7 6 5 6 7 6 6 7 9 9 8 9 9 9 9 9 8 7 6 8 9 8 6 6 7 7 8 8 7 7 7 6 6 6 5 5 5
2 3 3 3 4 5 6 5 4 4 1 2 4 4 2 2 4 3 2 6 6 6 4 2 1 4 3 3 0 2 4 6 6 5 5 7 7 7 7 9 9 8 7 7 6 7 8 9 5 6 7 8 9 8 7 6 6 7 6 5 5 5 5
1 5 2 2 4 1 1 5 3 2 0 1 3 3 3 3 4 4 3 3 4 3 2 3 6 7 6 5 3 4 3 5 5 4 4 6 7 7 8 9 8 7 6 7 7 7 7 6 4 4 5 7 8 7 6 6 7 7 5 5 4 4 4
2 4 1 2 4 4 4 3 4 0 1 2 4 5 3 4 6 4 3 4 3 0 0 0 4 1 2 5 4 6 5 5 6 6 5 4 6 10 6 6 7 7 7 7 7 6 5 5 5 5 6 8 8 6 6 8 7 5 4 4 5 5 5
4 3 3 5 4 5 4 3 1 2 2 0 5 5 2 7 6 4 4 4 2 1 1 2 2 6 7 7 6 6 6 5 5 4 5 6 5 6 4 6 6 7 8 8 7 6 4 5 4 4 6 8 7 7 7 7 4 3 4 4 5 6 6
2 2 2 1 0 1 1 1 2 1 2 4 4 2 1 3 6 5 3 3 2 2 1 2 6 9 8 6 4 4 6 6 5 4 5 5 5 5 5 6 6 7 8 8 7 6 5 5 4 3 6 7 6 6 7 4 2 2 3 3 4 5 5
3 2 3 2 3 3 2 2 3 2 3 2 3 4 2 1 3 4 3 2 3 3 5 7 7 8 9 6 4 3 4 5 4 3 4 4 3 4 5 7 8 8 9 8 7 6 5 5 4 4 5 6 5 6 5 2 3 3 4 4 4 5 5
2 3 3 3 4 6 4 4 2 1 0 2 1 4 4 6 3 3 4 4 4 4 6 6 7 6 4 6 4 4 3 3 4 4 3 4 4 4 5 6 6 7 9 9 8 7 5 5 4 4 4 6 5 5 3 3 4 4 4 4 4 5 5
2 1 2 2 2 4 7 2 2 6 3 1 2 5 3 1 3 4 6 5 5 4 5 8 4 5 5 5 4 4 3 3 2 2 3 4 4 5 5 6 6 7 8 8 8 8 5 5 5 4 4 5 6 2 2 3 3 4 4 4 4 4 4
3 1 3 4 2 4 10 12 6 5 4 2 0 3 3 2 3 5 3 5 6 5 5 6 7 5 5 5 3 3 3 3 2 2 3 2 3 5 5 4 5 6 7 7 7 6 6 3 4 4 4 4 3 2 3 3 3 3 4 4 4 4 4
1 2 1 2 1 6 9 10 9 3 8 6 3 3 4 4 3 4 4 6 6 4 6 6 8 7 6 6 5 4 3 3 3 3 3 4 4 3 4 4 5 6 6 6 5 5 5 3 3 4 4 3 3 3 3 3 4 4 3 3 3 4 3
1 2 2 2 7 9 8 1 10 3 6 8 5 4 5 7 8 7 7 5 3 4 6 5 9 8 5 6 7 6 3 3 3 3 4 4 4 4 4 3 4 6 5 5 4 4 3 2 3 4 3 2 2 3 3 3 4 5 4 4 4 4 3
3 6 6 7 8 3 4 5 5 1 3 9 8 7 7 7 8 8 10 8 7 7 4 6 9 9 6 4 6 6 5 5 4 4 4 4 4 3 2 3 4 4 4 5 4 4 2 1 3 3 3 2 1 2 3 3 4 5 4 4 4 4 3
7 7 7 5 5 6 4 7 4 1 2 8 11 8 5 4 5 7 10 9 9 8 7 5 8 9 8 5 6 6 4 3 4 5 7 6 4 4 4 5 3 4 3 3 4 3 1 1 2 2 2 1 1 1 3 3 4 4 4 3 3 2 1
0 6 8 7 6 8 5 4 4 5 5 11 9 6 6 6 6 8 9 7 9 6 7 8 6 8 8 5 8 7 5 4 6 4 3 4 5 4 4 5 5 4 4 4 4 4 3 2 3 3 2 0 0 0 1 4 4 4 3 2 1 0 0
7 6 7 5 6 8 5 5 4 4 4 10 9 7 8 9 6 8 10 7 5 9 8 8 7 6 9 7 7 7 5 4 5 5 5 4 4 4 4 5 5 6 6 4 4 4 3 3 2 2 2 0 1 1 1 3 4 4 3 2 3 1 0
Wind_Direction
196 195 146 210 147 167 215 79 210 219 222 114 108 42 43 101 60 239 172 294 301 276 295 239 267 226 220 195 198 199 205 199 181 188 188 189 186 177 178 185 188 189 190 188 186 185 185 184 182 183 183 182 184 181 182 185 186 185 187 187 189 189 184
317 250 162 161 198 135 107 183 238 242 70 99 114 140 320 66 176 248 142 233 222 128 289 216 205 207 217 208 207 203 202 197 194 192 188 189 188 184 181 183 185 187 188 189 189 189 186 185 184 185 186 184 186 183 183 184 183 185 190 186 185 185 185
311 344 94 53 240 281 155 201 207 108 300 294 8 96 97 170 264 245 272 243 250 202 234 167 205 209 208 207 206 204 203 199 200 193 189 190 189 175 171 178 180 186 190 192 189 190 191 190 186 186 185 183 186 186 186 184 185 188 187 186 184 185 185
311 8 73 162 304 300 323 69 114 132 111 169 128 215 162 115 211 78 290 125 260 208 212 183 190 203 207 197 198 207 208 208 197 197 190 184 186 184 172 173 180 184 191 193 191 188 189 191 190 188 184 183 186 187 184 188 190 187 184 183 180 184 189
37 46 345 126 188 276 328 22 249 217 289 226 116 121 145 165 165 183 176 307 272 258 199 168 185 190 194 188 195 199 197 199 191 176 179 183 185 182 174 175 181 185 189 193 195 192 191 190 188 183 183 186 188 186 185 185 183 184 187 187 180 186 182
3 251 263 358 250 213 233 151 32 234 316 144 153 252 346 104 106 196 137 234 266 289 290 169 169 194 177 175 178 181 169 150 151 161 157 154 158 166 167 177 175 181 188 192 194 195 194 187 186 186 187 186 185 186 185 182 182 184 186 187 184 182 182
267 279 307 284 26 114 142 113 2 319 193 102 92 154 235 68 53 120 154 140 266 276 314 231 169 179 166 164 156 159 161 160 160 184 175 171 166 162 156 122 100 90 64 26 321 220 197 191 191 189 184 185 186 186 181 180 179 187 187 186 183 177 180
296 309 261 316 31 30 16 5 20 18 355 294 178 183 198 147 171 56 332 202 245 316 350 326 121 140 140 158 167 153 154 158 182 186 177 171 130 129 113 124 130 126 117 103 84 43 5 326 230 194 187 188 185 184 182 179 184 185 184 183 177 175 176
344 347 350 356 360 38 67 320 316 325 299 296 250 90 63 104 219 175 138 224 257 336 359 15 59 94 109 98 12 143 147 177 188 193 181 154 145 143 137 140 145 146 145 139 128 126 114 81 41 355 270 198 185 186 182 182 185 182 182 177 173 177 178
37 2 348 319 326 319 312 291 319 346 359 340 2 199 60 117 279 108 175 218 297 3 34 39 43 62 54 45 68 36 164 167 179 182 167 157 154 161 159 156 156 159 162 157 151 156 154 123 94 71 31 338 258 196 183 173 158 161 180 173 174 175 178
168 213 231 252 239 317 5 321 336 344 343 338 106 100 112 201 229 199 237 147 131 78 49 53 31 42 74 74 74 95 118 95 98 136 155 162 160 168 171 176 179 165 159 167 171 163 161 139 128 107 92 74 53 28 38 84 112 105 59 155 176 174 178
186 190 204 272 25 15 328 352 348 346 2 341 46 70 181 202 92 277 240 175 116 165 118 111 108 108 98 100 119 126 116 80 96 99 107 107 113 124 130 147 176 184 181 172 168 162 149 138 126 122 120 123 122 128 96 65 95 113 106 92 58 141 169
265 198 220 43 47 44 304 24 14 2 352 357 44 332 271 188 164 217 282 110 101 101 122 138 143 151 137 135 140 124 107 85 89 100 122 122 110 104 132 156 163 163 165 162 152 144 139 133 129 131 133 135 143 155 157 156 153 143 143 143 144 142 142
157 170 133 63 57 2 14 19 21 10 3 349 353 37 1 92 70 65 81 85 88 96 106 97 100 110 98 94 100 108 127 134 130 127 120 106 108 113 115 129 156 161 149 154 156 144 144 141 138 139 141 146 150 152 160 164 156 148 149 152 146 152 161
251 275 291 64 102 81 42 350 11 18 3 356 354 17 16 44 71 69 80 78 73 55 80 82 86 87 95 96 115 118 97 113 118 124 141 136 110 101 109 125 127 127 126 120 118 123 127 138 137 133 137 141 141 136 137 147 149 151 155 148 158 165 163
309 270 296 283 229 25 62 13 4 1 7 18 358 14 344 5 33 64 64 60 71 102 91 85 85 95 102 91 79 83 65 75 81 108 101 94 113 133 136 124 116 115 114 123 122 124 116 121 140 131 124 129 132 141 146 153 155 153 149 147 145 142 131
275 274 35 12 46 6 334 334 337 328 336 167 289 0 12 9 307 32 29 347 347 91 94 87 74 74 55 51 45 44 53 55 76 91 94 97 91 123 129 128 117 97 83 85 88 85 100 118 122 145 140 127 118 121 131 135 137 143 135 127 136 145 146
252 296 347 10 68 254 240 236 132 95 98 167 94 19 15 359 22 88 29 5 15 51 62 57 56 52 51 56 49 52 48 66 83 94 96 81 69 65 67 82 102 107 102 97 96 96 92 88 82 94 107 112 99 94 94 80 57 56 131 133 135 133 135
239 331 15 42 257 233 242 271 159 117 113 99 75 55 23 32 37 79 89 359 17 54 57 49 44 64 61 51 50 53 65 80 76 83 90 95 89 78 73 63 56 61 77 81 83 83 82 92 106 104 98 109 118 120 128 125 123 103 59 110 111 121 116
33 47 39 139 244 237 285 283 286 259 180 122 118 48 18 350 19 97 104 106 291 125 102 79 66 56 61 63 45 47 44 68 105 107 101 92 83 76 65 77 72 75 72 76 82 83 81 94 108 108 107 93 88 78 71 84 87 102 115 95 89 85 72
185 167 140 223 306 322 321 357 330 146 163 143 119 144 268 307 327 35 140 181 212 138 114 112 88 332 64 61 46 28 41 43 57 79 80 79 79 83 72 66 71 69 75 77 83 85 75 57 59 66 83 93 95 92 86 78 77 60 60 68 67 68 63
120 131 56 354 20 277 269 240 271 268 176 118 150 108 292 270 250 144 172 178 171 155 145 116 151 210 90 54 24 30 30 36 51 74 87 80 80 83 86 81 76 77 79 80 73 86 87 78 77 87 86 91 96 96 98 98 97 97 88 78 77 79 68
73 56 126 198 169 243 207 230 239 264 20 126 144 65 346 247 203 200 203 160 160 160 152 186 176 80 92 148 149 69 45 35 25 46 55 73 77 82 90 98 95 90 87 88 89 84 88 90 85 95 106 107 101 97 99 105 107 102 98 98 90 86 81
171 136 112 238 206 230 265 229 259 248 29 222 62 46 283 233 193 188 178 209 200 198 159 135 98 117 135 164 153 109 82 55 39 38 52 83 82 65 75 77 82 84 83 82 71 66 71 73 78 78 88 95 98 105 107 107 95 91 87 86 90 92 90
170 144 235 325 302 276 244 232 238 229 183 65 87 181 235 189 169 184 184 222 219 156 217 134 112 227 162 126 105 95 92 76 68 70 56 14 79 96 75 82 93 90 83 77 75 73 69 73 72 73 85 86 82 81 87 83 78 76 78 81 77 78 77
160 184 130 218 237 240 213 245 159 182 96 211 205 237 175 141 148 189 191 214 229 144 201 283 123 118 99 97 94 98 95 102 103 90 86 81 44 61 86 95 87 88 86 82 80 68 57 63 63 69 85 86 83 81 77 79 77 70 68 71 76 72 66
73 45 77 20 220 294 142 121 72 82 118 230 213 144 47 120 151 166 197 200 220 156 108 115 118 111 102 97 94 103 117 118 118 113 109 108 111 109 99 87 85 95 94 89 85 83 67 55 40 46 79 86 87 88 89 94 94 85 76 71 75 77 68
146 135 153 192 215 235 259 142 191 229 197 194 183 114 109 106 140 180 160 220 198 165 133 131 118 111 109 95 95 94 94 102 102 101 103 109 115 100 93 102 110 101 94 90 86 75 69 62 55 46 65 78 75 74 59 36 74 69 60 48 51 59 59
130 190 216 247 248 234 254 186 212 168 270 127 147 107 145 139 159 156 147 164 147 140 132 118 117 111 108 120 124 126 128 118 120 120 114 111 103 91 90 89 88 90 99 100 93 82 78 79 69 67 65 81 71 60 6 48 66 66 55 54 53 49 44
229 194 199 246 340 7 357 326 145 129 102 51 137 124 105 60 116 148 149 145 127 117 117 115 105 125 128 116 113 111 119 117 92 72 68 67 79 87 90 82 84 94 92 91 93 91 73 78 76 66 59 69 72 36 18 54 58 71 74 67 60 51 45
69 125 330 16 33 23 14 350 345 75 76 72 118 109 94 87 90 94 103 126 123 124 123 132 143 141 135 124 117 120 125 129 133 110 95 79 96 108 98 101 101 92 96 94 94 95 88 65 82 72 70 60 77 70 63 59 64 63 59 54 53 48 37
115 217 160 33 312 83 47 9 323 53 80 60 26 71 101 96 71 90 102 105 98 112 117 141 142 147 142 137 139 144 154 158 139 127 127 117 90 73 97 92 89 83 83 89 85 84 82 60 68 74 74 67 51 54 49 46 46 43 29 46 75 52 39
356 65 62 66 62 59 87 93 292 288 115 106 69 64 84 92 87 77 58 51 80 99 124 120 122 130 151 149 151 152 153 146 138 138 144 130 122 128 111 103 108 114 113 101 103 99 90 52 65 63 58 43 36 59 50 48 55 48 39 40 61 46 43
166 183 192 167 117 156 164 201 220 319 75 93 86 72 63 78 90 87 80 59 53 58 52 109 116 121 119 125 138 151 164 167 148 133 125 120 118 101 83 84 93 101 105 119 118 113 113 55 76 73 60 39 11 27 60 60 59 59 52 51 53 51 52
204 227 194 187 132 127 160 168 192 156 75 91 89 88 89 73 86 97 96 84 59 53 38 32 102 110 114 119 114 113 132 146 137 143 136 128 127 127 117 104 89 101 111 113 107 110 132 103 99 94 74 8 6 19 51 67 74 74 68 57 48 38 60
68 169 170 176 147 143 162 175 161 153 141 102 100 101 98 95 90 85 79 89 101 79 62 46 47 98 101 105 108 105 94 99 108 101 106 125 134 133 129 131 133 128 128 135 145 161 173 152 134 116 109 2 229 333 67 86 83 81 87 106 135 66 21
179 181 158 179 121 109 112 137 143 129 117 110 109 108 108 95 77 88 91 78 76 97 88 69 45 55 89 78 80 88 93 93 108 112 110 112 115 123 132 133 151 157 165 168 164 161 166 160 146 139 123 161 177 153 133 116 107 104 108 115 138 178 283